Regional Weather Roundup
Issued by NWS

Home | Current Version | Previous Version | Graphics & Text | Print | Product List | Glossary On
Versions: 1 2 3 4 5 6 7 8 9 10 11 12 13 14 15 16 17 18 19 20 21 22 23 24 25 26
000
ASUS45 KCYS 101710
RWRWY

WYOMING REGIONAL WEATHER ROUNDUP
NATIONAL WEATHER SERVICE CHEYENNE WY
1000 AM MST SUN DEC 10 2017

NOTE:  "FAIR" INDICATES FEW OR NO CLOUDS BELOW 12,000 FEET
WITH NO SIGNIFICANT WEATHER AND/OR OBSTRUCTIONS TO VISIBILITY.

WYZ001-101800-
YELLOWSTONE NATIONAL PARK

CITY           SKY/WX    TMP DP  RH WIND       PRES   REMARKS
LK YELLOWSTONE   N/A     13  11  92 W3        30.62S
W YELLOWSTONE  NOT AVBL

$$
WYZ002>013-054>058-071-098>099-101800-
NORTHERN WYOMING

CITY           SKY/WX    TMP DP  RH WIND       PRES   REMARKS
JACKSON        FOG       20  16  84 VRB6      30.67R VSB 1/2 WCI  12
CODY           FAIR      30  17  58 NE3       30.41R
GREYBULL       FAIR      18  11  74 CALM      30.45S
WORLAND        FAIR      24  19  81 CALM      30.43R
SHERIDAN       FAIR      46  20  35 CALM      30.30F
BUFFALO        FAIR      52   3  13 S3        30.33S
GILLETTE       FAIR      43  13  29 SW16      30.32R
HULETT         FAIR      41  12  30 SW10      30.30S
NEWCASTLE      FAIR      37  14  38 CALM      30.34R

$$
WYZ014>020-022>026-101>103-101800-
CENTRAL WYOMING

CITY           SKY/WX    TMP DP  RH WIND       PRES   REMARKS
BIG PINEY      FAIR      30   8  39 SW3       30.53R
PINEDALE       FAIR      28   5  37 SE3       30.54R
DUBOIS         FAIR      45  -6  12 NW15G30   30.47S
LANDER         FAIR      25  11  55 CALM      30.44F
RIVERTON       FAIR      23  17  78 CALM      30.46S
CASPER         FAIR      34  13  41 SW23G31   30.42S WCI  22
DOUGLAS        FAIR      36  18  48 NW5       30.40R WCI  32

$$
WYZ021-027>030-104>119-101800-
SOUTHERN WYOMING

CITY           SKY/WX    TMP DP  RH WIND       PRES   REMARKS
EVANSTON       FAIR      32   6  33 S6        30.58R WCI  26
FORT BRIDGER   FAIR      39   5  24 W13       30.59R WCI  31
ROCK SPRINGS   FAIR      33   3  28 W8        30.54R WCI  26
DIXON          FAIR      19   9  66 CALM      30.62R
RAWLINS        FAIR      32  12  43 SW7       30.54R WCI  26
SARATOGA       FAIR      28  12  50 S5        30.54R WCI  23
LARAMIE        FAIR      40   5  23 W15       30.45R WCI  32
CHEYENNE       FAIR      49  -2  12 W10       30.42R
TORRINGTON     FAIR      45  13  27 NW13      30.37S
PINE BLUFFS    FAIR      48   1  14 MISG      30.40F

$$




USA.gov is the U.S. government's official web portal to all federal, state and local government web resources and services.